Terug naar catalogus

STARLINK-32181

ActiefCommunicatieVLEO
NORAD 60349·PAYLOAD·🇺🇸 United States

Gelanceerd Aug 2, 2024 vanaf Cape Canaveral Space Force Station

Loading…

Volgende Passages (komende 24 uur)

TLE

VersSource: CelesTrak SupGP

Epoch: Sep 15, 2026, 03:11 UTC

1 60349C 24136W   26258.13312500 -.00015671  00000+0 -46295-3 0  2584
2 60349  53.1572 271.1475 0001188  93.0904 266.4701 15.34401955    11

Volg STARLINK-32181 in realtime met AllMySat

Download on the App Store